Regional Weather Roundup
Issued by NWS Jackson, KY

Home | Current Version | Previous Version | Text Only | Print | Product List | Glossary Off
Versions: 1 2 3 4 5 6 7 8 9 10 11 12 13 14 15 16 17 18 19 20 21 22 23 24 25 26 27

000
ASUS43 KJKL 260910
RWRJKL

EAST KENTUCKY HOURLY WEATHER ROUNDUP
NATIONAL WEATHER SERVICE JACKSON KY
500 AM EDT TUE JUL 26 2016

NOTE: "FAIR" INDICATES FEW OR NO CLOUDS BELOW 12,000 FEET WITH
NO SIGNIFICANT WEATHER AND/OR OBSTRUCTIONS TO VISIBILITY.

* THESE REPORTS ARE NOT UNDER NWS QUALITY CONTROL AND MAY NOT
  REPORT WEATHER SUCH AS PRECIPITATION AND FOG.

KYZ079-080-083-085-087-088-110-112-115-119-120-261000
...EASTERN KENTUCKY...

CITY           SKY/WX    TMP DP  RH WIND       PRES   REMARKS
JACKSON        FOG       72  70  93 CALM      30.05S VSB 1
LONDON         CLEAR     69  66  90 CALM      30.05F
SOMERSET*      PTCLDY    70  70 100 CALM      30.05S FOG
MONTICELLO*    PTCLDY   N/A N/A N/A NE9       30.06S HAZE
WILLIAMSBURG*  SUNNY     70  70 100 CALM      30.06S
MIDDLESBORO*   CLEAR     69  69  99 CALM      30.07S
HARLAN APT*    CLOUDY    70  68  94 CALM      30.08R
PIKE CO APT*   FOG       71  71 100 CALM      30.06S VSB<1/4
BIG SANDY APT* FOG       73  73 100 CALM      30.04S VSB<1/4
MOREHEAD APT*  FOG       73  72  94 CALM      30.05S VSB 1/4
ASHLAND*       PTCLDY    72  70  94 CALM      29.99S
$$

KYZ035-036-041-042-044-050-067-078-099-261000
...CENTRAL KENTUCKY...

CITY           SKY/WX    TMP DP  RH WIND       PRES   REMARKS
MT STERLING*   PTCLDY    72  72 100 CALM      30.04F
FLEMING/MASON* CLOUDY    73  72  96 CALM      30.03S
DANVILLE*      CLEAR     70  70 100 CALM      30.05S
RICHMOND*      CLEAR     72  70  94 CALM      30.04R
LEXINGTON      MOCLDY    72  71  97 S5        30.03R FOG
FRANKFORT      PTCLDY    74  71  91 CALM      30.01S
LOUISVILLE     CLOUDY    77  73  87 CALM      30.00S
LEBANON*         N/A     72  72 100 CALM      30.03S FOG
GLASGOW*       CLEAR     73  73 100 CALM      30.02S
BOWLING GREEN  PTCLDY    74  72  93 CALM      30.01S
$$

KYZ091>093-OHZ055-061-077-WVZ005-015-034-035-042-261000
...SOUTHERN OHIO/WEST VIRGINIA...

CITY           SKY/WX    TMP DP  RH WIND       PRES   REMARKS
COVINGTON      CLOUDY    77  76  96 CALM      30.01F
COLUMBUS       CLOUDY    75  69  81 N5        30.00S
DAYTON         CLOUDY    72  68  87 N5        30.04R
WILMINGTON     MOCLDY    76  70  82 N6        30.02S
HUNTINGTON       N/A     73  71  93 S3        30.01S
CHARLESTON       N/A     74  71  91 CALM      30.02S
PINEVILLE*       N/A     68  65  90 MISG      30.13R FOG
BECKLEY          N/A     68  66  93 CALM      30.11R
BLUEFIELD        N/A     69  66  90 W6        30.14R
LOGAN CO APT*  FOG       70  70 100 CALM      30.05S VSB<1/4
$$

VAZ002-007-008-TNZ017-027-036-066-071-261000
...SOUTHWEST VIRGINIA/EAST TENNESSEE...

CITY           SKY/WX    TMP DP  RH WIND       PRES   REMARKS
WISE*            N/A     68  68 100 CALM      30.14S FOG
JONESVILLE*      N/A     68  68 100 CALM      30.09S FOG
ABINGDON*        N/A     71  70  97 CALM      30.10R
BRISTOL        MOCLDY    72  70  93 CALM      30.07R
MORRISTOWN*    SUNNY     73  72  94 S5        30.05R
SEVIERVILLE*   SUNNY     73  70  88 W3        30.05R
KNOXVILLE      PTCLDY    77  70  79 SW5       30.05R
OAK RIDGE      CLEAR     78  73  84 S3        30.06R
CROSSVILLE     PTCLDY    73  69  87 CALM      30.10S
NASHVILLE      CLEAR     76  71  85 CALM      30.02R
$$

...KEY TO REMARKS...
VSB - VISIBILITY IN MILES
WCI - WIND CHILL INDEX
HX  - HEAT INDEX

$$




USA.gov is the U.S. government's official web portal to all federal, state and local government web resources and services.